WZZ8340 EPSC-ENBR

Flight info

Callsign WZZ8340
Flight time 1h 24m
Altitude 28000
Route NEHIM DCT ROBOV L996 ROE/N0436F380 DCT TOPLA DCT ARTOR DCT PESUR
Aircraft A21N/M-SDE1E2E3FGIJ1J4RWXY/LB1

Departure

Time 2026-04-17 09:29
Airport Solidarity Szczecin–Goleniów Airport (EPSC)

Arrival

Time 2026-04-17 10:53
Airport Bergen Airport, Flesland (ENBR)
Time Latitude Longitude Altitude Speed Heading
2026-04-17 09:17 53.59252 14.89583 139 ft 0 kts 310°
2026-04-17 09:23 53.59253 14.89576 139 ft 2 kts 290°
2026-04-17 09:23 53.59239 14.89562 139 ft 4 kts 168°
2026-04-17 09:23 53.59209 14.89582 139 ft 7 kts 175°
2026-04-17 09:24 53.59159 14.89541 139 ft 9 kts 221°
2026-04-17 09:24 53.59101 14.89467 139 ft 12 kts 186°
2026-04-17 09:24 53.59032 14.89562 141 ft 15 kts 131°
2026-04-17 09:24 53.58958 14.89703 143 ft 17 kts 131°
2026-04-17 09:25 53.58873 14.89867 145 ft 20 kts 131°
2026-04-17 09:25 53.58777 14.90052 148 ft 22 kts 131°
2026-04-17 09:25 53.58676 14.90246 151 ft 24 kts 131°
2026-04-17 09:25 53.58562 14.90472 154 ft 26 kts 131°
2026-04-17 09:26 53.58438 14.90713 158 ft 28 kts 131°
2026-04-17 09:26 53.58303 14.90971 161 ft 30 kts 131°
2026-04-17 09:26 53.58198 14.91175 164 ft 12 kts 131°
2026-04-17 09:26 53.58148 14.91272 166 ft 12 kts 131°
2026-04-17 09:27 53.58086 14.91392 167 ft 15 kts 131°
2026-04-17 09:27 53.58025 14.91509 168 ft 17 kts 131°
2026-04-17 09:27 53.57941 14.91672 170 ft 20 kts 131°
2026-04-17 09:27 53.57861 14.91780 170 ft 14 kts 186°
2026-04-17 09:28 53.57780 14.91676 170 ft 15 kts 223°
2026-04-17 09:28 53.57757 14.91609 171 ft 6 kts 286°
2026-04-17 09:28 53.57923 14.91304 170 ft 75 kts 311°
2026-04-17 09:28 53.58235 14.90690 160 ft 128 kts 310°
2026-04-17 09:29 53.59131 14.88930 699 ft 154 kts 311°
2026-04-17 09:29 53.59826 14.87501 1398 ft 163 kts 313°
2026-04-17 09:29 53.60610 14.85996 2024 ft 179 kts 314°
2026-04-17 09:29 53.61477 14.84350 2767 ft 196 kts 317°
2026-04-17 09:30 53.62260 14.83458 3156 ft 211 kts 341°
2026-04-17 09:30 53.63781 14.83321 3662 ft 234 kts 17°
2026-04-17 09:30 53.65234 14.84715 4427 ft 248 kts 37°
2026-04-17 09:30 53.66618 14.86526 5406 ft 255 kts 37°
2026-04-17 09:31 53.68090 14.88421 6003 ft 281 kts 36°
2026-04-17 09:31 53.69736 14.90491 6397 ft 309 kts 35°
2026-04-17 09:31 53.71542 14.92731 6793 ft 333 kts 35°
2026-04-17 09:31 53.73463 14.95102 7210 ft 350 kts 35°
2026-04-17 09:32 53.75470 14.97575 7685 ft 362 kts 35°
2026-04-17 09:32 53.77527 15.00103 8460 ft 368 kts 34°
2026-04-17 09:32 53.79608 15.02650 9362 ft 371 kts 34°
2026-04-17 09:32 53.81863 15.04781 10263 ft 372 kts 20°
2026-04-17 09:33 53.84349 15.05726 10996 ft 374 kts
2026-04-17 09:33 53.86956 15.05505 11714 ft 377 kts 352°
2026-04-17 09:33 53.89557 15.04847 12468 ft 379 kts 351°
2026-04-17 09:33 53.92167 15.04157 13259 ft 380 kts 351°
2026-04-17 09:34 53.94782 15.03489 14039 ft 381 kts 351°
2026-04-17 09:34 53.97416 15.02831 14743 ft 383 kts 352°
2026-04-17 09:34 54.00055 15.02186 15462 ft 385 kts 352°
2026-04-17 09:35 54.05915 15.00769 17093 ft 392 kts 352°
2026-04-17 09:35 54.08620 15.00116 17866 ft 395 kts 352°
2026-04-17 09:35 54.11349 14.99456 18648 ft 397 kts 352°
2026-04-17 09:35 54.14052 14.98803 19338 ft 398 kts 352°
2026-04-17 09:36 54.16835 14.98131 20047 ft 400 kts 352°
2026-04-17 09:36 54.19554 14.97472 20772 ft 400 kts 351°
2026-04-17 09:36 54.22308 14.96802 21507 ft 400 kts 351°
2026-04-17 09:36 54.25062 14.96133 22268 ft 400 kts 351°
2026-04-17 09:37 54.27817 14.95464 23049 ft 399 kts 351°
2026-04-17 09:37 54.30556 14.94796 23854 ft 397 kts 351°
2026-04-17 09:37 54.33289 14.94130 24539 ft 396 kts 351°
2026-04-17 09:37 54.36009 14.93466 25248 ft 393 kts 351°
2026-04-17 09:38 54.38716 14.92803 25863 ft 394 kts 351°
2026-04-17 09:38 54.41434 14.92133 26363 ft 397 kts 351°
2026-04-17 09:38 54.44174 14.91456 26842 ft 400 kts 351°
2026-04-17 09:38 54.46939 14.90771 27321 ft 403 kts 351°
2026-04-17 09:39 54.49722 14.90087 27792 ft 406 kts 351°
2026-04-17 09:39 54.52529 14.89396 28259 ft 409 kts 351°
2026-04-17 09:39 54.55352 14.88699 28716 ft 411 kts 351°
2026-04-17 09:39 54.58195 14.87995 29171 ft 414 kts 351°
2026-04-17 09:40 54.61050 14.87287 29605 ft 417 kts 351°
2026-04-17 09:40 54.63943 14.86568 29967 ft 421 kts 351°
2026-04-17 09:40 54.66852 14.85844 30353 ft 425 kts 351°
2026-04-17 09:40 54.69785 14.85114 30699 ft 427 kts 351°
2026-04-17 09:41 54.72738 14.84380 31025 ft 430 kts 351°
2026-04-17 09:41 54.75702 14.83641 31368 ft 431 kts 351°
2026-04-17 09:41 54.78673 14.82899 31796 ft 430 kts 351°
2026-04-17 09:41 54.81632 14.82159 32225 ft 429 kts 351°
2026-04-17 09:42 54.84585 14.81413 32630 ft 428 kts 351°
2026-04-17 09:42 54.87526 14.80675 33096 ft 425 kts 350°
2026-04-17 09:42 54.90452 14.79942 33491 ft 425 kts 351°
2026-04-17 09:42 54.93374 14.79206 33810 ft 425 kts 351°
2026-04-17 09:43 54.96301 14.78467 34169 ft 425 kts 351°
2026-04-17 09:43 54.99229 14.77729 34494 ft 424 kts 351°
2026-04-17 09:43 55.02148 14.76990 34758 ft 425 kts 351°
2026-04-17 09:43 55.05050 14.76063 35009 ft 424 kts 344°
2026-04-17 09:44 55.07821 14.74313 35240 ft 423 kts 334°
2026-04-17 09:44 55.10374 14.71776 35480 ft 423 kts 328°
2026-04-17 09:44 55.12866 14.69023 35735 ft 423 kts 327°
2026-04-17 09:44 55.15345 14.66234 35983 ft 424 kts 327°
2026-04-17 09:45 55.17825 14.63458 36229 ft 424 kts 327°
2026-04-17 09:45 55.20309 14.60681 36474 ft 424 kts 327°
2026-04-17 09:45 55.22805 14.57925 36716 ft 424 kts 327°
2026-04-17 09:45 55.25300 14.55172 36948 ft 424 kts 327°
2026-04-17 09:46 55.27796 14.52411 37177 ft 424 kts 327°
2026-04-17 09:46 55.30293 14.49641 37392 ft 424 kts 327°
2026-04-17 09:46 55.32782 14.46877 37657 ft 423 kts 327°
2026-04-17 09:46 55.35266 14.44111 37921 ft 421 kts 327°
2026-04-17 09:47 55.37736 14.41357 38197 ft 420 kts 327°
2026-04-17 09:47 55.40203 14.38598 38365 ft 420 kts 327°
2026-04-17 09:47 55.45151 14.33027 38359 ft 423 kts 327°
2026-04-17 09:48 55.50121 14.27435 38330 ft 425 kts 327°
2026-04-17 09:48 55.55102 14.21801 38331 ft 426 kts 327°
2026-04-17 09:49 55.60058 14.16192 38331 ft 425 kts 327°
2026-04-17 09:49 55.65060 14.10590 38327 ft 427 kts 327°
2026-04-17 09:50 55.70111 14.04885 38336 ft 433 kts 327°
2026-04-17 09:50 55.75196 13.99094 38325 ft 435 kts 326°
2026-04-17 09:51 55.79463 13.94215 38338 ft 435 kts 326°
2026-04-17 09:51 55.84564 13.88365 38331 ft 437 kts 326°
2026-04-17 09:52 55.89662 13.82491 38327 ft 437 kts 326°
2026-04-17 09:52 55.94771 13.76603 38333 ft 437 kts 326°
2026-04-17 09:53 55.99838 13.70734 38305 ft 437 kts 326°
2026-04-17 09:53 56.04914 13.64838 38320 ft 434 kts 326°
2026-04-17 09:54 56.09976 13.58930 38325 ft 435 kts 326°
2026-04-17 09:54 56.15059 13.52992 38313 ft 437 kts 326°
2026-04-17 09:55 56.20155 13.47019 38316 ft 437 kts 326°
2026-04-17 09:55 56.25233 13.41028 38316 ft 437 kts 326°
2026-04-17 09:56 56.30324 13.35026 38320 ft 437 kts 326°
2026-04-17 09:56 56.35435 13.28972 38313 ft 436 kts 326°
2026-04-17 09:57 56.40459 13.23002 38333 ft 435 kts 325°
2026-04-17 09:57 56.45526 13.16965 38324 ft 437 kts 325°
2026-04-17 09:58 56.50606 13.10894 38337 ft 438 kts 325°
2026-04-17 09:58 56.55681 13.04792 38347 ft 438 kts 325°
2026-04-17 09:59 56.60759 12.98689 38349 ft 438 kts 325°
2026-04-17 09:59 56.65832 12.92560 38348 ft 438 kts 325°
2026-04-17 10:00 56.70893 12.86429 38341 ft 435 kts 325°
2026-04-17 10:00 56.75936 12.80291 38353 ft 437 kts 325°
2026-04-17 10:01 56.80990 12.74089 38350 ft 438 kts 324°
2026-04-17 10:01 56.86054 12.67904 38346 ft 438 kts 325°
2026-04-17 10:02 56.91110 12.61688 38344 ft 438 kts 324°
2026-04-17 10:02 56.96161 12.55444 38335 ft 438 kts 325°
2026-04-17 10:03 57.01224 12.49219 38334 ft 438 kts 324°
2026-04-17 10:03 57.06269 12.42937 38336 ft 439 kts 324°
2026-04-17 10:04 57.11310 12.36625 38339 ft 439 kts 324°
2026-04-17 10:04 57.16025 12.29545 38338 ft 437 kts 315°
2026-04-17 10:05 57.20431 12.21826 38340 ft 437 kts 315°
2026-04-17 10:05 57.24831 12.14082 38336 ft 437 kts 315°
2026-04-17 10:06 57.29241 12.06340 38336 ft 437 kts 315°
2026-04-17 10:06 57.33639 11.98576 38337 ft 437 kts 315°
2026-04-17 10:07 57.38034 11.90776 38344 ft 439 kts 315°
2026-04-17 10:07 57.42439 11.82940 38335 ft 439 kts 315°
2026-04-17 10:08 57.46851 11.75109 38334 ft 439 kts 315°
2026-04-17 10:08 57.51251 11.67211 38334 ft 439 kts 315°
2026-04-17 10:09 57.55643 11.59332 38336 ft 439 kts 315°
2026-04-17 10:09 57.60046 11.51424 38337 ft 439 kts 314°
2026-04-17 10:10 57.64428 11.43490 38338 ft 439 kts 314°
2026-04-17 10:11 57.70987 11.31639 38343 ft 439 kts 314°
2026-04-17 10:11 57.75365 11.23649 38338 ft 440 kts 314°
2026-04-17 10:12 57.79719 11.15602 38338 ft 440 kts 314°
2026-04-17 10:12 57.84105 11.07585 38336 ft 440 kts 314°
2026-04-17 10:13 57.88481 10.99546 38329 ft 440 kts 314°
2026-04-17 10:13 57.92862 10.91460 38336 ft 442 kts 314°
2026-04-17 10:14 57.97235 10.83344 38340 ft 442 kts 314°
2026-04-17 10:14 58.01615 10.75179 38334 ft 442 kts 314°
2026-04-17 10:15 58.05982 10.66999 38335 ft 444 kts 314°
2026-04-17 10:15 58.10359 10.58777 38334 ft 444 kts 314°
2026-04-17 10:16 58.14711 10.50571 38335 ft 444 kts 314°
2026-04-17 10:16 58.19085 10.42294 38333 ft 441 kts 313°
2026-04-17 10:17 58.23422 10.34057 38333 ft 441 kts 313°
2026-04-17 10:17 58.27709 10.25883 38333 ft 441 kts 313°
2026-04-17 10:18 58.32034 10.17612 38337 ft 441 kts 313°
2026-04-17 10:18 58.36512 10.09607 38337 ft 441 kts 316°
2026-04-17 10:19 58.41052 10.01758 38334 ft 441 kts 316°
2026-04-17 10:19 58.45600 9.93870 38339 ft 441 kts 315°
2026-04-17 10:20 58.50136 9.85969 38337 ft 442 kts 315°
2026-04-17 10:20 58.54677 9.78032 38333 ft 442 kts 315°
2026-04-17 10:21 58.59207 9.70083 38334 ft 442 kts 315°
2026-04-17 10:21 58.63728 9.62118 38335 ft 442 kts 315°
2026-04-17 10:22 58.68252 9.54126 38350 ft 442 kts 315°
2026-04-17 10:22 58.72762 9.46103 38331 ft 442 kts 315°
2026-04-17 10:23 58.77287 9.38011 38339 ft 445 kts 315°
2026-04-17 10:23 58.81826 9.29881 38336 ft 445 kts 315°
2026-04-17 10:24 58.86362 9.21742 38333 ft 445 kts 315°
2026-04-17 10:24 58.90901 9.13605 38333 ft 445 kts 315°
2026-04-17 10:25 58.95432 9.05433 38334 ft 445 kts 315°
2026-04-17 10:25 58.99952 8.97225 38335 ft 445 kts 315°
2026-04-17 10:26 59.04473 8.88994 38343 ft 447 kts 314°
2026-04-17 10:26 59.09014 8.80686 38324 ft 448 kts 314°
2026-04-17 10:27 59.13547 8.72367 38331 ft 448 kts 314°
2026-04-17 10:27 59.18084 8.64017 38322 ft 448 kts 314°
2026-04-17 10:28 59.22599 8.55642 38325 ft 448 kts 314°
2026-04-17 10:28 59.27112 8.47225 38321 ft 448 kts 314°
2026-04-17 10:29 59.31621 8.38796 38325 ft 448 kts 314°
2026-04-17 10:29 59.36143 8.30366 38329 ft 450 kts 314°
2026-04-17 10:30 59.40666 8.21868 38330 ft 450 kts 314°
2026-04-17 10:30 59.45185 8.13328 38332 ft 451 kts 314°
2026-04-17 10:31 59.49657 8.04896 38327 ft 442 kts 314°
2026-04-17 10:31 59.54083 7.96504 38331 ft 448 kts 314°
2026-04-17 10:32 59.58580 7.87924 38070 ft 448 kts 314°
2026-04-17 10:32 59.60841 7.83609 37325 ft 445 kts 313°
2026-04-17 10:32 59.63059 7.79352 36575 ft 443 kts 313°
2026-04-17 10:32 59.65261 7.75115 35870 ft 440 kts 313°
2026-04-17 10:33 59.67419 7.70965 35183 ft 437 kts 313°
2026-04-17 10:33 59.69624 7.66718 34446 ft 436 kts 313°
2026-04-17 10:33 59.71757 7.62595 33646 ft 434 kts 313°
2026-04-17 10:33 59.73917 7.58423 32871 ft 433 kts 313°
2026-04-17 10:34 59.76072 7.54252 32108 ft 432 kts 313°
2026-04-17 10:34 59.78217 7.50087 31356 ft 431 kts 312°
2026-04-17 10:34 59.80352 7.45909 30608 ft 431 kts 312°
2026-04-17 10:34 59.82483 7.41726 29712 ft 432 kts 312°
2026-04-17 10:35 59.84623 7.37518 28838 ft 436 kts 312°
2026-04-17 10:35 59.86803 7.33243 28129 ft 441 kts 313°
2026-04-17 10:35 59.88927 7.28872 27244 ft 437 kts 306°
2026-04-17 10:35 59.90638 7.23875 26185 ft 437 kts 299°
2026-04-17 10:36 59.92225 7.18735 25351 ft 434 kts 298°
2026-04-17 10:36 59.93294 7.15293 24842 ft 430 kts 299°
2026-04-17 10:36 59.94884 7.10263 24098 ft 426 kts 300°
2026-04-17 10:36 59.96464 7.05303 23318 ft 422 kts 300°
2026-04-17 10:37 59.98009 7.00440 22557 ft 419 kts 299°
2026-04-17 10:37 59.99584 6.95474 21815 ft 416 kts 299°
2026-04-17 10:37 60.01130 6.90597 21099 ft 414 kts 299°
2026-04-17 10:37 60.02662 6.85758 20400 ft 411 kts 299°
2026-04-17 10:38 60.04164 6.81002 19765 ft 408 kts 299°
2026-04-17 10:38 60.05691 6.76158 19137 ft 405 kts 299°
2026-04-17 10:38 60.07169 6.71457 18562 ft 403 kts 299°
2026-04-17 10:38 60.08659 6.66703 17923 ft 403 kts 299°
2026-04-17 10:39 60.10144 6.61957 17292 ft 403 kts 298°
2026-04-17 10:39 60.11629 6.57193 16667 ft 402 kts 298°
2026-04-17 10:39 60.13106 6.52440 16077 ft 401 kts 298°
2026-04-17 10:39 60.14604 6.47632 15496 ft 400 kts 298°
2026-04-17 10:40 60.16052 6.42973 14943 ft 398 kts 298°
2026-04-17 10:40 60.17512 6.38257 14372 ft 397 kts 298°
2026-04-17 10:40 60.18965 6.33551 13763 ft 394 kts 298°
2026-04-17 10:40 60.20395 6.28916 13163 ft 386 kts 298°
2026-04-17 10:41 60.21810 6.24317 12601 ft 377 kts 298°
2026-04-17 10:41 60.23176 6.19878 12028 ft 370 kts 298°
2026-04-17 10:41 60.24498 6.15571 11507 ft 362 kts 298°
2026-04-17 10:41 60.25812 6.11278 11197 ft 349 kts 298°
2026-04-17 10:42 60.27063 6.07194 10961 ft 335 kts 298°
2026-04-17 10:42 60.28260 6.03270 10727 ft 322 kts 298°
2026-04-17 10:42 60.29407 5.99501 10519 ft 309 kts 298°
2026-04-17 10:42 60.30512 5.95862 10252 ft 301 kts 297°
2026-04-17 10:43 60.31599 5.92276 9765 ft 300 kts 297°
2026-04-17 10:43 60.32685 5.88692 9296 ft 298 kts 297°
2026-04-17 10:43 60.33763 5.85129 8794 ft 296 kts 297°
2026-04-17 10:43 60.34827 5.81606 8394 ft 292 kts 297°
2026-04-17 10:44 60.35811 5.78346 8018 ft 289 kts 297°
2026-04-17 10:44 60.36857 5.74869 7648 ft 289 kts 297°
2026-04-17 10:44 60.37896 5.71408 7306 ft 287 kts 297°
2026-04-17 10:44 60.38918 5.67997 6942 ft 288 kts 297°
2026-04-17 10:45 60.39965 5.64514 6568 ft 285 kts 298°
2026-04-17 10:45 60.40984 5.61114 6344 ft 281 kts 298°
2026-04-17 10:45 60.41993 5.57736 6180 ft 280 kts 297°
2026-04-17 10:45 60.43000 5.54368 6032 ft 279 kts 298°
2026-04-17 10:46 60.44000 5.51015 5922 ft 276 kts 298°
2026-04-17 10:46 60.44995 5.47671 5378 ft 279 kts 298°
2026-04-17 10:46 60.46001 5.44286 4888 ft 280 kts 298°
2026-04-17 10:46 60.46995 5.40936 4542 ft 274 kts 300°
2026-04-17 10:47 60.47969 5.37680 4274 ft 266 kts 297°
2026-04-17 10:47 60.48901 5.34560 3987 ft 258 kts 297°
2026-04-17 10:47 60.49817 5.31475 3806 ft 252 kts 296°
2026-04-17 10:47 60.50404 5.28286 3619 ft 231 kts 269°
2026-04-17 10:48 60.50134 5.25310 3500 ft 205 kts 238°
2026-04-17 10:48 60.49432 5.22866 3436 ft 199 kts 232°
2026-04-17 10:48 60.48705 5.20476 3365 ft 199 kts 233°
2026-04-17 10:48 60.47968 5.18081 3288 ft 199 kts 225°
2026-04-17 10:49 60.46907 5.16438 3172 ft 191 kts 195°
2026-04-17 10:49 60.45626 5.16159 3073 ft 185 kts 172°
2026-04-17 10:49 60.44412 5.16572 3011 ft 169 kts 169°
2026-04-17 10:49 60.43281 5.16978 2837 ft 162 kts 169°
2026-04-17 10:50 60.42195 5.17434 2622 ft 158 kts 169°
2026-04-17 10:50 60.41131 5.17814 2405 ft 152 kts 169°
2026-04-17 10:50 60.40102 5.18167 2202 ft 149 kts 169°
2026-04-17 10:50 60.39096 5.18509 1986 ft 142 kts 169°
2026-04-17 10:51 60.38174 5.18821 1793 ft 129 kts 169°
2026-04-17 10:51 60.37307 5.19114 1640 ft 125 kts 169°
2026-04-17 10:51 60.36452 5.19388 1519 ft 124 kts 169°
2026-04-17 10:51 60.35601 5.19691 1307 ft 125 kts 167°
2026-04-17 10:52 60.34735 5.19998 1058 ft 127 kts 168°
2026-04-17 10:52 60.33860 5.20295 908 ft 127 kts 170°
2026-04-17 10:52 60.32989 5.20584 747 ft 125 kts 169°
2026-04-17 10:52 60.32133 5.20869 544 ft 125 kts 168°
2026-04-17 10:53 60.31281 5.21163 369 ft 123 kts 168°
2026-04-17 10:53 60.30438 5.21447 216 ft 123 kts 168°
2026-04-17 10:53 60.29650 5.21716 154 ft 92 kts 171°
2026-04-17 10:53 60.29194 5.21867 165 ft 48 kts 170°
2026-04-17 10:54 60.28969 5.21943 167 ft 16 kts 170°
2026-04-17 10:54 60.28908 5.22040 165 ft 10 kts 90°
2026-04-17 10:54 60.28915 5.22146 164 ft 6 kts 78°
2026-04-17 10:54 60.28922 5.22213 165 ft 6 kts 79°
2026-04-17 10:55 60.28931 5.22314 168 ft 6 kts 81°
2026-04-17 10:55 60.28944 5.22391 171 ft 5 kts 63°
2026-04-17 10:55 60.28941 5.22474 175 ft 6 kts 107°
2026-04-17 10:55 60.28931 5.22538 178 ft 3 kts 107°
2026-04-17 10:56 60.28930 5.22547 178 ft 0 kts 107°
2026-04-17 10:57 60.28930 5.22546 178 ft 0 kts 107°
2026-04-17 11:06 60.28930 5.22547 206 ft 0 kts 107°